| time (UTC) | temp F | wind direction | speed MPH | gust MPH | rain 1hr in | rain 24hr in | rain mn in | humidity % | barometer mb |
| 20260904151607 | 90 | 0 | 0.0 | 0.0 | 0.00 | 0.00 | 0.00 | 34 | 976.9 |
| 20260904144606 | 90 | 0 | 0.0 | 5.0 | 0.00 | 0.00 | 0.00 | 35 | 977.1 |
| 20260904141604 | 90 | 0 | 0.0 | 3.0 | 0.00 | 0.00 | 0.00 | 39 | 977.4 |
| 20260904134605 | 91 | 0 | 1.0 | 5.0 | 0.00 | 0.00 | 0.00 | 37 | 977.8 |
| 20260904132939 | 91 | 40 | 0.0 | 0.0 | 0.00 | 0.00 | 0.00 | 37 | 977.9 |
| 20260904124602 | 91 | 0 | 0.0 | 7.0 | 0.00 | 0.00 | 0.00 | 37 | 978.5 |
| 20260904121600 | 90 | 93 | 0.0 | 0.0 | 0.00 | 0.00 | 0.00 | 39 | 978.7 |
| 20260904114600 | 89 | 78 | 0.0 | 0.0 | 0.00 | 0.00 | 0.00 | 40 | 979.0 |
| 20260904111600 | 89 | 0 | 0.0 | 0.0 | 0.00 | 0.00 | 0.00 | 40 | 979.1 |
| 20260904104558 | 88 | 0 | 0.0 | 1.0 | 0.00 | 0.00 | 0.00 | 41 | 979.5 |
| 20260904101558 | 86 | 0 | 0.0 | 0.0 | 0.00 | 0.00 | 0.00 | 42 | 979.8 |
| 20260904094600 | 85 | 0 | 0.0 | 0.0 | 0.00 | 0.00 | 0.00 | 47 | 980.0 |
| 20260904091558 | 83 | 0 | 0.0 | 0.0 | 0.00 | 0.00 | 0.00 | 47 | 980.1 |
| 20260904084602 | 81 | 0 | 0.0 | 0.0 | 0.00 | 0.00 | 0.00 | 50 | 980.1 |
| 20260904081557 | 79 | 17 | 0.0 | 0.0 | 0.00 | 0.00 | 0.00 | 51 | 980.0 |
| 20260904074552 | 74 | 13 | 0.0 | 0.0 | 0.00 | 0.00 | 0.00 | 61 | 980.1 |
| 20260904071552 | 67 | 15 | 0.0 | 0.0 | 0.00 | 0.00 | 0.00 | 75 | 979.9 |
| 20260904064552 | 63 | 18 | 0.0 | 0.0 | 0.00 | 0.00 | 0.00 | 77 | 980.0 |
| 20260904064315 | 61 | 0 | 0.0 | 0.0 | 0.00 | 0.00 | 0.00 | 80 | 980.1 |
| 20260904054549 | 60 | 0 | 0.0 | 0.0 | 0.00 | 0.00 | 0.00 | 81 | 980.1 |
| 20260904051551 | 59 | 0 | 0.0 | 0.0 | 0.00 | 0.00 | 0.00 | 80 | 980.2 |
| 20260904044547 | 60 | 0 | 0.0 | 0.0 | 0.00 | 0.00 | 0.00 | 79 | 980.2 |
| 20260904041546 | 60 | 0 | 0.0 | 0.0 | 0.00 | 0.00 | 0.00 | 78 | 980.2 |
| 20260904041319 | 61 | 11 | 0.0 | 0.0 | 0.00 | 0.00 | 0.00 | 77 | 980.5 |
| 20260904031544 | 62 | 0 | 0.0 | 0.0 | 0.00 | 0.00 | 0.00 | 75 | 980.8 |
| 20260904024545 | 62 | 0 | 0.0 | 0.0 | 0.00 | 0.00 | 0.00 | 74 | 981.0 |
| 20260904021544 | 62 | 15 | 0.0 | 0.0 | 0.00 | 0.00 | 0.00 | 74 | 981.3 |
| 20260904014546 | 62 | 0 | 0.0 | 0.0 | 0.00 | 0.00 | 0.00 | 74 | 981.4 |
| 20260904011546 | 63 | 15 | 0.0 | 0.0 | 0.00 | 0.00 | 0.00 | 72 | 981.5 |
| 20260904004544 | 64 | 0 | 0.0 | 0.0 | 0.00 | 0.00 | 0.00 | 72 | 981.7 |
| 20260904001544 | 64 | 0 | 0.0 | 0.0 | 0.00 | 0.00 | 0.00 | 71 | 981.8 |
| 20260903234545 | 64 | 0 | 0.0 | 0.0 | 0.00 | 0.00 | 0.00 | 70 | 982.0 |
| 20260903232940 | 65 | 0 | 0.0 | 0.0 | 0.00 | 0.00 | 0.00 | 69 | 982.0 |
| 20260903224543 | 65 | 0 | 0.0 | 0.0 | 0.00 | 0.00 | 0.00 | 68 | 982.1 |
| 20260903221543 | 67 | 0 | 0.0 | 0.0 | 0.00 | 0.00 | 0.00 | 64 | 982.3 |
| 20260903214544 | 68 | 0 | 0.0 | 0.0 | 0.00 | 0.00 | 0.00 | 62 | 982.2 |
| 20260903211542 | 69 | 0 | 0.0 | 0.0 | 0.00 | 0.00 | 0.00 | 62 | 982.2 |
| 20260903205931 | 69 | 0 | 0.0 | 0.0 | 0.00 | 0.00 | 0.00 | 60 | 982.2 |
| 20260903201541 | 69 | 12 | 0.0 | 0.0 | 0.00 | 0.00 | 0.00 | 60 | 982.3 |
| 20260903195915 | 71 | 11 | 0.0 | 0.0 | 0.00 | 0.00 | 0.00 | 57 | 982.1 |
| 20260903191539 | 72 | 13 | 0.0 | 0.0 | 0.00 | 0.00 | 0.00 | 56 | 981.9 |
| 20260903185917 | 75 | 0 | 0.0 | 0.0 | 0.00 | 0.00 | 0.00 | 51 | 981.7 |
| 20260903181537 | 78 | 11 | 0.0 | 0.0 | 0.00 | 0.00 | 0.00 | 48 | 981.5 |
| 20260903174537 | 80 | 0 | 0.0 | 0.0 | 0.00 | 0.00 | 0.00 | 45 | 981.5 |
| 20260903171536 | 82 | 0 | 0.0 | 3.0 | 0.00 | 0.00 | 0.00 | 43 | 981.4 |
| 20260903164532 | 83 | 0 | 0.0 | 6.0 | 0.00 | 0.00 | 0.00 | 41 | 981.4 |
| 20260903161533 | 84 | 0 | 0.0 | 6.0 | 0.00 | 0.00 | 0.00 | 41 | 981.3 |
| 20260903154532 | 84 | 0 | 0.0 | 0.0 | 0.00 | 0.00 | 0.00 | 38 | 981.4 |